User: anonymous   Login
Location: St Paul
(33.9360°N, 83.4200°W)
Time: 18:13:15
(UTC-05:00)
Language:

METEOR-M - Orbit

View from above orbital plane
View from above orbital plane
View from above satellite
View from above satellite

Ground track
Ground track

The orbit data is extracted from the following two-line orbital elements,

1 35865U 09049A   18316.78141226  .00000025  00000-0  29998-4 0  9997
2 35865  98.4074 319.9676 0003512  90.3157 269.8424 14.22172195475104
Epoch (UTC): 12 November 2018 18:45:14
Eccentricity: 0.0003512
inclination: 98.4074°
perigee height: 815 km
apogee height: 820 km
right ascension of ascending node: 319.9676°
argument of perigee: 90.3157°
revolutions per day: 14.22172195
mean anomaly at epoch: 269.8424°
orbit number at epoch: 47510

The dashed part of the orbit path shows where the satellite is in the earth's shadow,  

DLR